Location: Houhaj�rvi
(61.2833°N, 23.0000°E)
Time: 19:24:16
(UTC+00:00)

Cosmos 2227 Rocket - Pass Details

Date: 27 February 2020
Orbit: 839 x 845 km, 71.0° (Epoch: 30 March)

Event Time Altitude Azimuth Distance (km) Brightness Sun altitude
Rises 19:55:52 0° 318° (NW) 3,410 6.6 -29.0°
Reaches altitude 10° 19:59:02 10° 301° (WNW) 2,471 5.5 -29.3°
Maximum altitude 20:02:45 18° 260° (W) 1,942 4.4 -29.6°
Enters shadow 20:05:33 13° 226° (SW) 2,249 4.4 -29.8°
